Voltar ao catálogo

CZ-6A DEB

AtivoPO
NORAD 60710·DEBRIS·🇨🇳 China

Lançado Aug 6, 2024 de Taiyuan Satellite Launch Center

Loading…

Próximas Passagens (próximas 24 horas)

TLE

AtualizadoSource: Space-Track

Época: Sep 14, 2026, 12:34 UTC

1 60710U 24140DP  26257.52374323  .00000228  00000-0  10038-3 0  9993
2 60710  89.2009 283.1044 0041607 244.8818 114.8053 14.19888497108313

Acompanhe CZ-6A DEB em tempo real com AllMySat

Download on the App Store